Japanese version Home page |
Updated on December 17, 2023 |
|
Orbital ElementsEpoch = 2003 June 10.0 TT T = 2003 June 27.01545 TT Peri. = 217.57304 e = 0.5573311 Node = 209.04572 2000.0 q = 3.3870835 AU Incl. = 11.00925 a = 7.6515059 AU n = 0.04656758 P = 21.16 years
|
Finding Charts
|
Magnitudes Graphm1 = -7 + 5 log d + 38.5 log r(t - 117)
|
The orbital elements are printed on CBET 5306.
|